Location: Błonie
(52.1971°N, 20.6200°E)
Time: 11:24:55
(UTC+01:00)

ISS - Visible Passes

Search period start: 24 January 2019 00:00
Search period end: 03 February 2019 00:00
Orbit: 404 x 410 km, 51.6° (Epoch: 24 January)

Date Brightness Start Highest point End Pass type
(mag) Time Alt. Az. Time Alt. Az. Time Alt. Az.
24 Jan -1.8 17:49:46 10° S 17:51:54 16° SE 17:52:03 16° SE visible
24 Jan -0.5 19:24:41 10° WSW 19:24:47 11° WSW 19:24:47 11° WSW visible
25 Jan -1.3 17:00:08 10° SSE 17:00:48 10° SE 17:01:26 10° SE visible
25 Jan -2.4 18:33:32 10° SW 18:35:41 31° SSW 18:35:41 31° SSW visible
26 Jan -2.5 17:42:31 10° SSW 17:45:23 28° SSE 17:46:30 22° ESE visible
26 Jan -0.9 19:18:20 10° WSW 19:19:14 17° WSW 19:19:14 17° WSW visible
27 Jan -1.9 16:51:44 10° SSW 16:54:10 19° SE 16:56:37 10° E visible
27 Jan -3.4 18:27:01 10° WSW 18:30:00 56° SSW 18:30:00 56° SSW visible
28 Jan -3.2 17:35:46 10° SW 17:38:56 45° SSE 17:40:43 22° E visible
28 Jan -1.4 19:12:02 10° W 19:13:26 23° W 19:13:26 23° W visible
29 Jan -3.9 18:20:38 10° WSW 18:23:56 77° S 18:24:07 73° SE visible
30 Jan -3.6 17:29:15 10° WSW 17:32:31 66° SSE 17:34:47 18° E visible
30 Jan -1.8 19:05:42 10° W 19:07:30 29° W 19:07:30 29° W visible
31 Jan -3.9 18:14:16 10° W 18:17:34 83° S 18:18:09 58° ESE visible
31 Jan -0.2 19:50:47 10° W 19:50:52 10° W 19:50:52 10° W visible
01 Feb -3.8 17:22:49 10° W 17:26:07 81° S 17:28:49 15° E visible
01 Feb -2.3 18:59:19 10° W 19:01:32 37° W 19:01:32 37° W visible
02 Feb -3.8 18:07:51 10° W 18:11:10 75° S 18:12:12 40° ESE visible
02 Feb -0.4 19:44:30 10° W 19:44:55 13° W 19:44:55 13° W visible
